ROMMA est une association bénévole à but non lucratif. Votre soutien est indispensable : ADHERER à ROMMA ou FAIRE un DON

Tourrette-Levens - (06, Alpes-Maritimes)

Côte-d'Azur (416 m)   Longitude: 07° 16' 12" E   Latitude: 43° 47' 24" N Station partenaire n°152
 

Détail journalier du     <<     >>

Température Precipitation Humidité Pression Vent Dir Rafale Dir. rafale Ensol.
Heure (°C) (mm) (%) (hPa) (km/h) (km/h) (min)
01:00 7.807910002NO11SSO0
02:00 8.40679984OSO16N0
03:00 8.10659974O19ONO0
04:00 7.80689953ONO15ONO0
05:00 8.50669945NNE29NNE0
06:00 6.51.6849976NNE24ONO0
07:00 4.92899975N24NNO0
08:00 5.60859984NNE19ENE0
09:00 7.40889982SSO19NO0
10:00 7.608310004O16SO0
11:00 9.007410022NNE10NNE0
12:00 10.606410031NE5NE0
13:00 10.705810042SSO10SO0
14:00 11.505910041ESE10E0
15:00 14.604610045ESE21S51
16:00 13.604810057SE29SSE60
17:00 13.804710056SSE31ONO60
18:00 11.905510064SE16ESE16
19:00 9.907010074S18SO0
20:00 8.308010071SSE8SSE0
21:00 7.808110081ONO6ONO0
22:00 7.9082100902ONO0
23:00 7.80831010000
minuit 7.3086101103ONO0

Graphique du 05-05-2019

 

Serveur OMMA